• In Austria
  • List of Countries
  • For 7 days
  • Water Temperature
  • Satellite Maps
  • Weather Map
  • News
  • Weather Widgets
  • user-avatar
    Login

    Hourly Weather Tibissa

    Today, 15 November, Thursday

    Time Temperature Precipitation Wind Pressure Humidity
    00:00 +13°C° 0 mm 2 mps 688 mmHg 85%
    01:00 +11°C° 0 mm 3 mps 688 mmHg 88%
    02:00 +12°C° 0 mm 2 mps 688 mmHg 89%
    03:00 +12°C° 0 mm 2 mps 687 mmHg 90%
    04:00 +10°C° 0 mm 2 mps 687 mmHg 92%
    05:00 +10°C° 0 mm 2 mps 687 mmHg 92%
    06:00 +10°C° 0 mm 2 mps 687 mmHg 92%
    07:00 +10°C° 0 mm 2 mps 687 mmHg 91%
    08:00 +12°C° 0 mm 2 mps 687 mmHg 83%
    09:00 +12°C° 0 mm 3 mps 687 mmHg 76%
    10:00 +13°C° 0 mm 3 mps 687 mmHg 69%
    11:00 +14°C° 0 mm 3 mps 687 mmHg 63%
    12:00 +17°C° 0 mm 4 mps 687 mmHg 57%
    13:00 +18°C° 0 mm 4 mps 687 mmHg 51%
    14:00 +18°C° 0 mm 4 mps 686 mmHg 52%
    15:00 +16°C° 0 mm 5 mps 686 mmHg 53%
    16:00 +16°C° 0 mm 5 mps 685 mmHg 55%
    17:00 +16°C° 0 mm 5 mps 685 mmHg 60%
    18:00 +15°C° 0 mm 4 mps 685 mmHg 65%
    19:00 +14°C° 0 mm 4 mps 685 mmHg 71%
    20:00 +14°C° 0 mm 4 mps 685 mmHg 75%
    21:00 +13°C° 0 mm 4 mps 685 mmHg 79%
    22:00 +12°C° 0 mm 4 mps 685 mmHg 83%
    23:00 +12°C° 0 mm 3 mps 685 mmHg 85%

    Tomorrow, 16 November, Friday

    Time Temperature Precipitation Wind Pressure Humidity
    00:00 +12°C° 0 mm 3 mps 684 mmHg 88%
    01:00 +11°C° 0 mm 3 mps 684 mmHg 90%
    02:00 +11°C° 0 mm 3 mps 684 mmHg 90%
    03:00 +11°C° 0 mm 3 mps 684 mmHg 90%
    04:00 +11°C° 0 mm 3 mps 683 mmHg 90%
    05:00 +11°C° 0 mm 3 mps 683 mmHg 90%
    06:00 +12°C° 0 mm 2 mps 683 mmHg 89%
    07:00 +12°C° 0 mm 2 mps 683 mmHg 88%
    08:00 +12°C° 0 mm 3 mps 684 mmHg 83%
    09:00 +12°C° 0 mm 3 mps 684 mmHg 78%
    10:00 +13°C° 0 mm 3 mps 684 mmHg 73%
    11:00 +14°C° 0 mm 3 mps 684 mmHg 67%
    12:00 +15°C° 0 mm 4 mps 684 mmHg 61%
    13:00 +17°C° 0 mm 4 mps 684 mmHg 55%
    14:00 +17°C° 0 mm 4 mps 684 mmHg 54%
    15:00 +17°C° 0 mm 4 mps 684 mmHg 53%
    16:00 +16°C° 0 mm 5 mps 683 mmHg 52%
    17:00 +15°C° 0 mm 4 mps 684 mmHg 57%
    18:00 +14°C° 0 mm 4 mps 684 mmHg 61%
    19:00 +13°C° 0 mm 3 mps 684 mmHg 65%
    20:00 +13°C° 0 mm 3 mps 684 mmHg 69%
    21:00 +13°C° 0 mm 2 mps 684 mmHg 72%
    22:00 +13°C° 0 mm 2 mps 684 mmHg 76%
    23:00 +12°C° 0 mm 2 mps 684 mmHg 80%

    Day after tomorrow, 17 November, Saturday

    Time Temperature Precipitation Wind Pressure Humidity
    00:00 +12°C° 0 mm 2 mps 683 mmHg 83%
    01:00 +10°C° 0 mm 2 mps 683 mmHg 86%
    02:00 +11°C° 0 mm 1 mps 683 mmHg 89%
    03:00 +11°C° 0 mm 1 mps 682 mmHg 91%
    04:00 +11°C° 0 mm 1 mps 682 mmHg 93%
    05:00 +11°C° 0 mm 1 mps 682 mmHg 92%
    06:00 +11°C° 0 mm 1 mps 682 mmHg 92%
    07:00 +10°C° 0 mm 1 mps 682 mmHg 91%
    08:00 +11°C° 0 mm 1 mps 682 mmHg 86%
    09:00 +12°C° 0 mm 1 mps 682 mmHg 81%
    10:00 +13°C° 0 mm 1 mps 683 mmHg 76%
    11:00 +13°C° 0.1 mm 1 mps 682 mmHg 70%
    12:00 +14°C° 0.1 mm 1 mps 682 mmHg 65%
    13:00 +15°C° 0.1 mm 1 mps 682 mmHg 59%
    14:00 +15°C° 0 mm 2 mps 681 mmHg 58%
    15:00 +15°C° 0 mm 2 mps 681 mmHg 58%
    16:00 +15°C° 0 mm 2 mps 681 mmHg 57%
    17:00 +14°C° 0 mm 2 mps 681 mmHg 62%
    18:00 +14°C° 0 mm 2 mps 681 mmHg 66%
    19:00 +13°C° 0 mm 1 mps 680 mmHg 71%
    20:00 +13°C° 0 mm 1 mps 681 mmHg 73%
    21:00 +12°C° 0 mm 1 mps 681 mmHg 74%
    22:00 +12°C° 0 mm 1 mps 681 mmHg 76%
    23:00 +12°C° 0 mm 1 mps 680 mmHg 77%

    18 November, Sunday

    Time Temperature Precipitation Wind Pressure Humidity
    00:00 +11°C° 0 mm 1 mps 680 mmHg 79%
    01:00 +11°C° 0 mm 1 mps 680 mmHg 80%
    02:00 +11°C° 0 mm 1 mps 680 mmHg 80%
    03:00 +10°C° 0 mm 1 mps 680 mmHg 81%
    04:00 +10°C° 0 mm 1 mps 679 mmHg 81%
    05:00 +10°C° 0 mm 1 mps 679 mmHg 81%
    06:00 +10°C° 0 mm 1 mps 680 mmHg 82%
    07:00 +10°C° 0 mm 1 mps 680 mmHg 82%
    08:00 +10°C° 0 mm 2 mps 680 mmHg 75%
    09:00 +13°C° 0 mm 2 mps 681 mmHg 68%
    10:00 +14°C° 0 mm 2 mps 682 mmHg 61%
    11:00 +15°C° 0 mm 2 mps 681 mmHg 57%
    12:00 +16°C° 0 mm 3 mps 681 mmHg 53%
    13:00 +17°C° 0 mm 4 mps 681 mmHg 48%
    14:00 +17°C° 0 mm 4 mps 681 mmHg 49%
    15:00 +17°C° 0 mm 4 mps 681 mmHg 49%
    16:00 +17°C° 0 mm 4 mps 681 mmHg 50%
    17:00 +15°C° 0 mm 4 mps 680 mmHg 55%
    18:00 +14°C° 0 mm 3 mps 680 mmHg 61%
    19:00 +13°C° 0 mm 3 mps 680 mmHg 66%
    20:00 +13°C° 0 mm 3 mps 680 mmHg 68%
    21:00 +12°C° 0 mm 3 mps 680 mmHg 70%
    22:00 +12°C° 0 mm 3 mps 680 mmHg 73%
    23:00 +12°C° 0 mm 3 mps 680 mmHg 74%

    19 November, Monday

    Time Temperature Precipitation Wind Pressure Humidity
    00:00 +11°C° 0 mm 3 mps 680 mmHg 76%
    01:00 +11°C° 0 mm 3 mps 679 mmHg 77%
    02:00 +11°C° 0 mm 3 mps 679 mmHg 79%
    03:00 +10°C° 0 mm 3 mps 679 mmHg 80%
    04:00 +10°C° 0 mm 3 mps 679 mmHg 82%
    05:00 +10°C° 0 mm 3 mps 678 mmHg 82%
    06:00 +10°C° 0 mm 3 mps 678 mmHg 82%
    07:00 +9°C° 0 mm 2 mps 678 mmHg 82%
    08:00 +11°C° 0 mm 3 mps 679 mmHg 73%
    09:00 +13°C° 0 mm 4 mps 679 mmHg 64%
    10:00 +14°C° 0 mm 6 mps 680 mmHg 56%
    11:00 +15°C° 0 mm 6 mps 679 mmHg 52%
    12:00 +16°C° 0 mm 7 mps 679 mmHg 48%
    13:00 +17°C° 0 mm 8 mps 678 mmHg 44%
    14:00 +16°C° 0 mm 8 mps 678 mmHg 45%
    15:00 +16°C° 0 mm 8 mps 677 mmHg 47%
    16:00 +16°C° 0 mm 8 mps 677 mmHg 48%
    17:00 +15°C° 0 mm 7 mps 676 mmHg 51%
    18:00 +14°C° 0 mm 7 mps 676 mmHg 55%
    19:00 +13°C° 0 mm 6 mps 676 mmHg 58%
    20:00 +13°C° 0 mm 6 mps 676 mmHg 59%
    21:00 +13°C° 0 mm 6 mps 676 mmHg 60%
    22:00 +13°C° 0 mm 6 mps 676 mmHg 61%
    23:00 +11°C° 0 mm 6 mps 676 mmHg 61%

    20 November, Tuesday

    Time Temperature Precipitation Wind Pressure Humidity
    00:00 +12°C° 0 mm 5 mps 675 mmHg 62%
    01:00 +12°C° 0 mm 5 mps 675 mmHg 63%
    02:00 +10°C° 0 mm 5 mps 675 mmHg 65%
    03:00 +10°C° 0 mm 5 mps 675 mmHg 67%
    04:00 +9°C° 0 mm 5 mps 675 mmHg 70%
    05:00 +9°C° 0 mm 5 mps 675 mmHg 72%
    06:00 +10°C° 0 mm 4 mps 675 mmHg 74%
    07:00 +8°C° 0 mm 4 mps 676 mmHg 77%
    08:00 +10°C° 0 mm 5 mps 676 mmHg 64%
    09:00 +11°C° 0 mm 7 mps 677 mmHg 52%
    10:00 +12°C° 0 mm 8 mps 678 mmHg 39%
    11:00 +13°C° 0 mm 9 mps 678 mmHg 39%
    12:00 +14°C° 0 mm 10 mps 678 mmHg 39%
    13:00 +14°C° 0 mm 10 mps 678 mmHg 38%
    14:00 +14°C° 0 mm 11 mps 678 mmHg 40%
    15:00 +14°C° 0 mm 11 mps 678 mmHg 41%
    16:00 +13°C° 0 mm 11 mps 678 mmHg 43%
    17:00 +12°C° 0 mm 10 mps 679 mmHg 47%
    18:00 +11°C° 0 mm 8 mps 679 mmHg 51%
    19:00 +11°C° 0 mm 7 mps 679 mmHg 56%
    20:00 +10°C° 0 mm 7 mps 680 mmHg 57%
    21:00 +10°C° 0 mm 7 mps 680 mmHg 59%
    22:00 +10°C° 0 mm 6 mps 680 mmHg 60%
    23:00 +10°C° 0 mm 5 mps 680 mmHg 63%
    Show more